Regional Weather Roundup
Issued by NWS Columbia, SC

Home | Current Version | Previous Version | Text Only | Print | Product List | Glossary On
Versions: 1 2 3 4 5 6 7 8 9 10 11 12 13 14 15 16 17 18 19 20 21 22 23 24 25 26 27 28 29 30 31 32 33 34 35 36 37 38 39 40 41 42 43 44 45 46 47 48 49 50
000
ASUS42 KCAE 261410
RWRCAE
REGIONAL WEATHER ROUNDUP
NATIONAL WEATHER SERVICE COLUMBIA SC
1000 AM EDT TUE JUL 26 2016

NOTE: "FAIR" INDICATES FEW OR NO CLOUDS BELOW 12,000 FEET WITH NO
SIGNIFICANT WEATHER AND/OR OBSTRUCTIONS TO VISIBILITY.

NOT ALL STATIONS ARE QUALITY CONTROLLED BY THE NATIONAL
WEATHER SERVICE. USE DATA WITH CAUTION...ESPECIALLY
DEWPOINT OBSERVATIONS.

SCZ001>056-GAZ040-063>065-077-261500-
...UPSTATE SOUTH CAROLINA...

CITY           SKY/WX    TMP DP  RH WIND       PRES   REMARKS
ANDERSON       CLOUDY    83  75  77 SW7       30.06F
LIBERTY        SUNNY     82  75  79 W5        30.06S
SPARTANBURG    SUNNY     82  72  69 SW6       30.05S
CLEMSON        MOSUNNY   83  74  74 VRB3      30.08S
GREENVILLE     SUNNY     84  71  65 VRB5      30.08S
GREENWOOD      SUNNY     85  71  63 SW9       30.08S
GREER          SUNNY     83  74  74 VRB5      30.06S
ROCK HILL      PTSUNNY   84  71  65 W6        30.06S
CHESTER        MOSUNNY   81  70  69 CALM      30.06F
LAURENS        SUNNY     84  72  65 W7        30.06S


...CENTRAL SOUTH CAROLINA...

CITY           SKY/WX    TMP DP  RH WIND       PRES   REMARKS
COLUMBIA APT   MOSUNNY   87  73  62 SW7       30.04S
COLUMBIA OWENS SUNNY     85  72  65 SW5       30.06S
ORANGEBURG     SUNNY     84  74  71 W7        30.06S
NEWBERRY       SUNNY     82  73  74 SW7       30.08F
AIKEN          FAIR      84  72  65 SW7       30.10S
MANNING        FAIR      82  72  69 SW6       30.05F
LANCASTER      SUNNY     84  72  65 W7        30.05F


...EASTERN AND COASTAL SOUTH CAROLINA...

CITY           SKY/WX    TMP DP  RH WIND       PRES   REMARKS
MYRTLE BEACH   SUNNY     88  70  55 SW12      30.08R
N MYRTLE BCH   SUNNY     86  74  67 W12       30.05F
CONWAY         FAIR      84  73  70 SW9       30.06S
MARION         FAIR      82  73  74 SW7       30.05S
HARTSVILLE     FAIR      82  72  69 SW3       30.04F
FLORENCE       SUNNY     85  74  69 SW9       30.05S
DARLINGTON     SUNNY     83  75  77 SW6       30.05S
CHARLESTON APT MOSUNNY   87  73  62 W7        30.06F
MOUNT PLEASANT FAIR      86  75  70 CALM      30.07S HX  95
WALTERBORO     SUNNY     86  73  66 W6        30.08S
BEAUFORT       MOSUNNY   88  73  61 W8        30.07S HX  95


...EASTERN GEORGIA...

CITY           SKY/WX    TMP DP  RH WIND       PRES   REMARKS
AUGUSTA BUSH F SUNNY     87  72  60 VRB6      30.05S
AUGUSTA DANIEL MOSUNNY   87  72  60 SW5       30.07F
WASHINGTON     FAIR      86  75  70 W7        30.07F HX  95
CLAXTON        FAIR      86  75  70 SW5       30.08S
STATESBORO     SUNNY     86  76  72 W5        30.08S HX  95
SAVANNAH       MOSUNNY   86  72  62 W8        30.08S


...SOUTHERN NORTH CAROLINA...

CITY           SKY/WX    TMP DP  RH WIND       PRES   REMARKS
CHARLOTTE      SUNNY     83  70  64 VRB6      30.06S
MONROE         SUNNY     84  70  62 W8        30.04F
ROCKINGHAM     SUNNY     83  74  74 SW5       30.04F
RUTHERFORDTON    N/A     83  73  72 CALM      30.08S
ASHEVILLE      CLOUDY    78  68  71 N9        30.16S

$$



USA.gov is the U.S. government's official web portal to all federal, state and local government web resources and services.